User: anonymous   Login
Location: Ferchesar
(52.6477°N, 12.4298°E)
Time: 22:46:39
(UTC+01:00)
Language:

FENGYUN 1C DEB - Orbit

View from above orbital plane
View from above orbital plane
View from above satellite
View from above satellite

Ground track
Ground track

The orbit data is extracted from the following two-line orbital elements,

1 31099U 99025BGV 22028.29284208  .00000206  00000-0  10527-3 0  9992
2 31099  99.0898 222.1271 0066235  40.8705 131.4862 14.25232396773076
Epoch (UTC): 28 January 2022 07:01:41
Eccentricity: 0.0066235
inclination: 99.0898°
perigee height: 760 km
apogee height: 855 km
right ascension of ascending node: 222.1271°
argument of perigee: 40.8705°
revolutions per day: 14.25232396
mean anomaly at epoch: 131.4862°
orbit number at epoch: 77307

The dashed part of the orbit path shows where the satellite is in the earth's shadow,  

DLR